Flag for U.S.A. Weather past 2 weeks in New City, New York, U.S.A.

Now
11 °F

Clear.


Feels Like: -10 °F
Forecast: 10 / 22 °F
Wind: 25 mph from Northwest

Location: Westchester County Airport

Current Time: Jan 31, 2015 at 5:13:28 AM

Latest Report: Jan 31, 2015 at 4:56 AM


Visibility: 10 mi

Pressure: 30.03 "Hg

Humidity: 46%

Dew point: -6 °F

Location of New CityLocation

Historic Weather in New City — Graph

°F

New City temperature yesterday

Maximum temperature yesterday: 35 °F (at 1:56 PM)
Minimum temperature yesterday: 18 °F (at 10:56 PM)
Average temperature yesterday: 29 °F

Past Weeks' High & Low Weather Summary

 TemperatureHumidityPressure
High42 °F (Jan 18, 3:56 PM)100% (Jan 24, 4:04 AM)30.41 "Hg (Jan 24, 4:04 AM)
Low13 °F (Jan 17, 6:56 AM)26% (Jan 17, 2:56 PM)29.27 "Hg (Jan 24, 3:56 PM)
Average28 °F63%29.97 "Hg
* Reported Jan 16 3:56 AM — Jan 31 3:56 AM, New City, Weather by CustomWeather, © 2014

Note: Actual official high and low records may vary slightly from our data, if they occured in-between our weather recording intervals... More about our weather records

Advertising

New City weather history for previous 24 hours

 ConditionsComfort  
Time TempWeatherWind HumidityBarometerVisibility
3:56 AM
Jan 31
13 °FClear.24 mph46%30.02 "Hg10 mi
2:56 AM14 °FClear.26 mph51%30.01 "Hg10 mi
1:56 AM15 °FClear.28 mph53%29.98 "Hg9 mi
12:56 AM17 °FClear.28 mph51%29.97 "Hg10 mi
11:56 PM
Jan 30
18 °FClear.28 mph54%29.97 "Hg9 mi
10:56 PM18 °FClear.23 mph57%29.97 "Hg10 mi
9:56 PM19 °FClear.24 mph54%29.97 "Hg10 mi
8:56 PM20 °FClear.26 mph57%29.96 "Hg7 mi
7:56 PM23 °FClear.24 mph55%29.94 "Hg10 mi
6:56 PM26 °FClear.25 mph57%29.93 "Hg10 mi
5:56 PM29 °FPassing clouds.22 mph54%29.89 "Hg9 mi
4:56 PM31 °FScattered clouds.20 mph52%29.86 "Hg10 mi
3:56 PM34 °FScattered clouds.20 mph48%29.82 "Hg10 mi
2:56 PM34 °FPartly sunny.23 mph54%29.81 "Hg10 mi
1:56 PM35 °FPartly sunny.21 mph54%29.80 "Hg10 mi
12:56 PM34 °FPartly sunny.16 mph67%29.81 "Hg10 mi
11:56 AM32 °FCloudy.15 mph79%29.82 "Hg7 mi
10:56 AM31 °FLight snow. Overcast.15 mph79%29.84 "Hg7 mi
9:56 AM29 °FLight snow. Ice fog.12 mph89%29.85 "Hg4 mi
8:56 AM30 °FLight snow. Ice fog.9 mph85%29.86 "Hg1 mi
7:56 AM30 °FLight snow. Ice fog.8 mph85%29.83 "Hg4 mi
6:56 AM30 °FIce fog.7 mph92%29.84 "Hg6 mi
5:56 AM30 °FIce fog.No wind96%29.85 "Hg6 mi
Weather by CustomWeather, © 2014

See weather overviewHow to use our weather pages